This demonstration page uses our WeatherBlox Daily Observations layout. Learn more.

Left ArrowRight Arrow

44.89941, -97.11507

Hourly Observations for May 28, 2022

Temp ( °F °C ) Dew Point ( °F °C ) Humidity (%) Winds ( mph kmh ) Pressure ( in mb ) Visibility ( mi km ) Precip ( " mm )
12:53 am 00:53 Clear 69 20.6 54 12.2 59 59 SSE 14 22 29.60 1003 10 16 0.00 0.00
1:53 am 01:53 Partly Cloudy 69 20.6 54 12.2 59 59 SSE 20 31 29.58 1002 10 16 0.00 0.00
2:53 am 02:53 Mostly Clear 67 19.4 55 12.8 66 66 SSE 15 24 29.53 1000 10 16 0.00 0.00
3:53 am 03:53 Clear 66 18.9 56 13.3 70 70 S 18 30 29.51 999 10 16 0.00 0.00
4:53 am 04:53 Clear 65 18.3 56 13.3 73 73 S 14 22 29.52 1000 10 16 0.00 0.00
5:53 am 05:53 Sunny 63 17.2 56 13.3 78 78 S 14 22 29.52 1000 10 16 0.00 0.00
6:53 am 06:53 Sunny 63 17.2 57 13.9 81 81 SSE 8 13 29.52 1000 10 16 0.00 0.00
7:53 am 07:53 Sunny 66 18.9 58 14.4 75 75 S 9 15 29.52 1000 10 16 0.00 0.00
8:53 am 08:53 Sunny 68 20 57 13.9 68 68 SW 9 15 29.53 1000 10 16 0.00 0.00
9:53 am 09:53 Sunny 71 21.7 58 14.4 63 63 WNW 10 17 29.54 1001 10 16 0.00 0.00
10:53 am 10:53 Sunny 77 25 57 13.9 50 50 NW 15 24 29.54 1001 10 16 0.00 0.00
11:53 am 11:53 Sunny 78 25.6 55 12.8 45 45 NW 15 24 29.55 1001 10 16 0.00 0.00
12:53 pm 12:53 Sunny 79 26.1 56 13.3 45 45 N 16 26 29.55 1001 10 16 0.00 0.00
1:53 pm 13:53 Sunny 80 26.7 55 12.8 42 42 N 8 13 29.54 1000 10 16 0.00 0.00
2:53 pm 14:53 Sunny 79 26.1 55 12.8 44 44 N 6 9 29.53 1000 10 16 0.00 0.00
3:53 pm 15:53 Sunny 81 27.2 54 12.2 39 39 N 5 7 29.52 1000 10 16 0.00 0.00
4:53 pm 16:53 Sunny 81 27.2 53 11.7 38 38 NW 5 7 29.52 1000 10 16 0.00 0.00
5:53 pm 17:53 Sunny 82 27.8 56 13.3 41 41 ESE 5 7 29.50 999 10 16 0.00 0.00
6:53 pm 18:53 Sunny 81 27.2 59 15 47 47 NE 6 9 29.50 999 10 16 0.00 0.00
7:53 pm 19:53 Sunny 78 25.6 57 13.9 48 48 ENE 12 19 29.50 999 10 16 0.00 0.00
8:53 pm 20:53 Sunny 75 23.9 56 13.3 52 52 ENE 7 11 29.47 998 10 16 0.00 0.00
9:53 pm 21:53 Clear 74 23.3 56 13.3 54 54 E 8 13 29.45 997 10 16 0.00 0.00
10:53 pm 22:53 Clear 73 22.8 56 13.3 55 55 E 9 15 29.43 997 10 16 0.00 0.00
11:53 pm 23:53 Clear 74 23.3 54 12.2 50 50 ESE 14 22 29.42 996 10 16 0.00 0.00

Powered by AerisWeather